Location: Casteau
(50.5142°N, 4.0161°E)
Time: 18:38:11
(UTC+00:00)

Transit 2A - Pass Details

Date: 03 August 2021
Orbit: 594 x 964 km, 66.7° (Epoch: 26 September)

Event Time Altitude Azimuth Distance (km) Brightness Sun altitude
Rises 11:01:28 0° 319° (NW) 3,090 8.8 55.5°
Reaches altitude 10° 11:04:34 10° 340° (NNW) 2,243 8.2 55.6°
Maximum altitude 11:07:53 17° 21° (NNE) 1,885 8.0 55.8°
Drops below altitude 10° 11:11:23 10° 60° (ENE) 2,402 8.6 56.0°
Sets 11:14:52 0° 81° (E) 3,414 9.4 56.1°
